SCP
0 0 0 0 0 -0 0 0 0 0 0 0 0 0 0 0 0 0 0 -0 -0 -0 -1 -1 -1 -1 -0 -0 -0 -0 0 1 2 1 0 0 -0 -0 0 1 1 1 1 0
0 0 0 0 0 0 0 0 0 0 0 0 0 0 0 0 0 0 0 -0 -0 -0 -1 -2 -2 -1 -0 -0 -0 -0 0 0 1 1 0 0 0 0 0 0 1 0 1 0
0 0 0 0 0 0 -0 0 0 0 0 0 0 0 1 1 0 0 0 0 -0 -0 -1 -1 -1 -1 -1 -0 -0 -0 -0 -0 0 -0 0 0 0 0 0 0 0 0 0 0
0 1 1 0 0 0 0 0 0 0 0 0 0 0 0 1 0 -0 0 0 0 -0 -0 -0 -0 -0 -0 -0 -0 -0 -0 -0 -0 -0 -0 0 0 0 0 0 0 0 0 0
1 0 0 0 0 0 0 0 0 0 0 0 0 0 0 0 0 0 0 0 0 0 -0 -0 -1 -0 -0 -0 -0 -0 -0 -0 -0 -0 -0 -0 0 0 0 0 0 0 0 -0
1 0 0 0 0 0 0 0 0 0 0 0 0 0 0 0 0 0 0 0 0 0 0 0 -1 -0 -0 -0 -0 -0 -0 -0 -0 -0 0 0 0 0 0 0 0 0 0 0
0 1 0 0 0 0 0 1 -0 0 0 0 0 0 0 0 -0 0 0 0 0 0 0 -0 -0 -0 0 0 0 -0 -0 0 0 0 0 0 0 1 1 1 0 0 0 0
-0 0 -0 1 1 1 2 2 2 2 1 1 0 0 0 0 0 0 0 0 0 0 0 0 0 0 0 0 0 1 0 1 1 1 0 0 1 1 1 0 0 0 0 0
0 0 1 1 0 1 -0 0 1 2 1 1 1 0 0 0 0 0 0 0 0 0 -0 -0 -0 0 0 0 0 0 0 0 0 0 0 1 1 1 0 0 0 0 0 0
0 0 0 0 0 0 0 0 1 1 0 1 1 0 0 -0 -0 0 -0 0 0 -0 0 -0 -0 -0 -0 0 0 0 0 0 0 0 0 1 0 0 0 0 0 0 0 0
-0 0 0 0 0 0 0 0 0 0 0 0 1 0 0 0 0 0 -0 -0 0 0 0 -0 -0 -0 -0 0 0 0 0 0 0 0 1 1 1 0 0 0 0 0 0 0
0 -0 -0 0 0 0 0 0 0 -0 0 0 1 1 0 0 0 -0 -0 2 1 0 -0 -0 -0 -0 -0 0 0 0 0 0 0 0 0 1 0 1 0 0 0 0 0 0
0 0 -0 -0 0 0 0 0 0 0 0 0 0 0 1 1 1 -0 -0 2 0 -1 -0 -0 -0 -0 0 0 0 0 -0 -0 0 0 0 0 0 0 0 0 0 0 0 0
0 -0 -0 -0 -0 -0 -0 0 0 0 0 0 0 1 1 0 -1 0 -0 0 -0 -1 -0 -0 -0 0 0 0 0 0 -0 -0 -0 -0 0 0 0 0 0 0 0 0 0 0
0 0 0 0 0 -0 -0 0 0 0 0 0 1 1 2 0 1 2 -0 1 -0 -0 -0 0 0 0 0 0 0 0 -0 0 0 0 0 0 0 0 0 0 0 0 0 0
0 0 0 0 0 -0 0 0 0 0 0 0 1 1 1 0 1 2 1 1 -0 0 0 0 0 0 0 0 0 0 0 0 0 0 0 0 0 0 0 0 0 0 0 0
0 0 0 -0 0 0 0 0 0 0 0 0 1 1 1 1 1 2 2 1 0 0 0 0 1 1 1 0 0 0 0 0 0 0 0 0 0 0 0 0 0 0 0 0
0 0 0 0 0 0 0 0 0 0 0 0 0 1 1 3 3 4 1 2 2 1 1 1 1 1 1 0 0 0 0 0 0 0 0 0 0 0 0 0 0 0 0 0
0 -0 -0 0 0 -0 0 0 0 0 0 0 0 1 2 1 1 1 3 5 2 2 1 1 0 0 1 1 0 0 0 0 0 0 0 0 0 0 0 0 0 0 0 0
0 0 -0 0 0 0 0 0 0 0 0 0 0 1 0 0 0 0 0 4 1 2 2 1 0 1 1 0 0 0 0 0 0 0 0 0 0 0 0 0 0 0 0 0
0 0 0 0 0 0 0 0 0 0 0 0 0 0 0 0 0 0 0 0 1 1 1 0 1 0 0 0 0 0 0 0 0 0 0 0 0 0 0 0 0 0 0 0
0 0 0 0 0 0 0 0 0 0 0 0 0 0 0 0 0 0 0 0 0 0 1 0 0 0 0 0 0 0 0 0 0 0 0 0 0 0 0 0 0 0 0 0
0 0 0 0 -0 -0 0 0 0 0 0 0 0 0 0 0 0 0 0 0 0 0 1 1 0 0 0 1 0 0 0 0 0 0 0 0 0 0 0 0 0 0 0 0
0 0 0 0 0 0 0 0 0 0 0 0 1 0 1 0 0 0 0 -0 0 0 0 0 0 0 0 0 0 0 0 0 0 0 0 0 0 0 0 0 0 0 0 0
0 0 0 0 0 0 0 0 0 0 0 0 1 1 1 0 0 0 0 1 0 0 0 0 0 0 0 0 0 0 0 0 0 0 0 0 0 0 0 0 0 0 0 0
0 0 0 0 0 0 0 0 0 1 0 0 1 0 0 1 1 1 1 1 1 0 0 0 0 0 0 0 0 0 0 0 0 0 0 0 0 0 0 0 0 0 0 0
-0 0 0 0 0 0 0 0 1 1 1 1 1 1 1 1 1 1 0 0 0 0 0 0 0 0 0 0 0 0 0 0 0 0 0 0 0 0 0 0 0 0 0 0
Wind_Speed_500mb
48 57 55 40 35 48 40 41 37 32 21 20 11 13 19 26 33 34 35 34 32 36 64 60 59 51 53 56 55 51 51 50 52 36 44 46 48 46 45 45 45 40 45 45
52 53 56 55 41 46 45 41 45 44 35 27 43 22 40 58 45 40 42 39 38 33 50 48 48 50 47 50 58 59 61 55 54 46 45 47 47 40 42 43 45 41 40 47
36 39 43 50 54 46 43 39 41 37 30 28 14 12 38 37 48 47 47 45 44 44 44 44 46 52 50 56 53 61 50 51 47 48 45 41 38 34 30 32 34 42 42 44
27 42 44 42 39 46 39 24 45 30 20 21 16 12 17 24 48 51 48 49 48 47 46 46 43 40 43 43 36 45 46 41 37 36 35 33 32 32 28 30 32 38 38 41
23 35 46 45 44 44 30 40 47 26 30 39 56 27 13 32 49 48 48 49 48 47 45 47 50 47 47 45 44 40 40 41 34 31 28 32 34 32 34 34 34 34 37 40
19 14 46 46 45 59 28 24 41 22 19 8 21 6 10 42 34 46 47 45 46 47 42 43 55 51 46 44 42 39 35 35 34 28 27 28 31 33 26 21 23 22 26 31
31 24 17 55 43 41 26 5 31 33 28 20 5 10 25 23 108 55 56 48 50 49 50 52 45 43 48 42 37 30 25 24 23 22 20 18 16 17 21 24 28 29 34 35
18 25 37 20 35 4 10 33 42 36 30 13 21 32 8 50 38 38 60 58 54 50 50 45 46 45 42 37 32 30 30 30 32 30 21 17 16 18 19 25 24 25 27 26
18 16 24 39 46 15 11 11 33 47 51 32 17 41 58 60 51 38 10 56 52 54 56 53 48 47 40 35 32 30 28 23 18 17 12 14 14 17 27 22 25 25 28 35
8 2 16 43 34 42 42 9 23 3 48 26 22 36 56 92 88 90 75 52 60 62 57 55 48 41 38 34 25 25 21 21 19 19 18 17 20 23 28 31 30 15 19 26
14 15 30 17 16 18 42 35 16 27 28 23 24 14 62 65 84 96 92 81 81 71 61 58 52 43 32 28 28 27 22 20 19 19 23 22 23 23 27 31 36 38 38 37
10 17 21 28 13 15 24 54 32 39 28 18 24 19 35 65 89 110 76 79 78 75 69 62 52 44 34 28 26 26 23 18 16 13 13 21 20 20 23 28 38 40 38 36
13 2 18 26 18 35 42 49 55 32 30 20 24 28 28 33 21 35 84 86 89 80 71 65 58 45 33 27 23 24 23 16 12 13 14 14 17 21 22 30 29 30 33 34
43 15 18 16 13 18 17 37 54 47 28 18 28 34 26 3 50 83 80 85 83 81 71 66 54 43 36 28 24 23 24 20 16 12 11 15 16 19 23 25 29 32 17 25
49 35 24 22 10 15 36 47 51 35 24 24 27 33 21 25 5 31 89 89 85 72 65 60 52 46 38 31 26 22 17 8 5 7 10 17 22 22 16 19 24 26 37 46
27 35 37 39 27 17 21 39 39 35 19 23 29 26 23 24 4 11 86 73 82 76 68 60 52 49 41 33 26 21 19 19 15 15 9 11 15 19 25 24 27 31 25 28
34 26 29 34 20 19 37 45 31 28 20 24 26 29 27 42 38 27 29 62 64 64 69 66 57 50 42 32 28 20 13 17 14 19 8 14 19 25 23 25 26 30 23 30
31 38 38 33 25 24 32 31 30 30 27 23 31 34 27 24 25 34 25 52 59 63 67 65 56 50 43 36 30 24 18 11 11 11 17 17 25 28 20 23 24 26 23 30
26 28 35 28 28 30 35 36 34 29 25 28 32 24 14 14 35 23 28 64 65 70 67 62 55 48 44 37 31 29 18 13 13 13 16 21 25 16 19 27 24 26 21 29
29 28 21 24 29 29 34 32 35 34 30 29 23 11 17 9 13 79 57 69 72 62 62 62 54 47 44 36 26 21 16 16 15 16 23 20 19 19 26 25 30 16 15 19
30 31 30 29 33 34 41 30 40 38 29 25 13 15 25 11 14 23 66 69 23 33 45 48 49 38 35 31 25 15 14 13 14 15 20 20 21 22 19 22 15 13 21 16
31 32 30 30 32 37 24 30 33 28 25 21 11 12 8 12 31 39 70 65 52 47 51 45 44 40 31 22 16 11 16 15 12 17 25 21 21 21 21 15 14 17 17 24
29 29 30 34 36 25 21 28 26 23 23 20 15 18 17 3 9 14 53 73 17 47 57 46 51 47 42 28 18 15 17 15 15 18 17 18 26 26 21 19 18 22 18 28
4 4 17 15 26 21 26 27 25 24 22 20 19 16 15 22 27 24 31 37 40 46 40 43 49 46 36 35 26 15 15 15 15 16 14 24 28 21 22 25 20 22 22 27
14 21 23 18 14 21 23 21 18 24 22 17 19 19 20 24 27 32 38 44 47 41 48 38 41 44 37 26 14 14 14 17 17 24 25 28 18 23 30 27 22 26 23 32
24 24 21 14 9 8 11 11 2 21 22 24 16 16 15 12 14 17 25 29 31 40 33 30 36 28 24 17 17 14 11 12 17 27 28 17 14 25 20 17 18 21 30 36
34 30 23 21 24 14 17 11 20 26 28 16 17 11 13 13 22 19 15 22 36 24 20 26 26 24 22 18 15 13 6 15 19 19 18 15 9 9 14 18 15 18 29 35
Wind_Direction_500mb
274 280 287 283 222 263 234 258 262 259 232 171 342 305 140 143 150 162 160 164 173 179 166 173 177 193 203 196 209 215 204 210 219 244 230 231 229 232 237 240 246 251 253 253
255 263 273 279 262 264 265 228 244 255 258 146 192 195 138 201 162 171 157 166 168 181 159 164 170 175 177 191 201 205 209 215 225 231 233 234 241 240 245 248 254 254 255 252
288 287 277 262 259 258 244 262 231 246 255 109 109 132 170 170 171 169 164 166 168 175 168 176 180 191 199 207 211 208 204 216 232 224 238 247 240 242 248 261 249 250 252 256
274 295 263 267 275 279 270 294 260 235 242 137 121 291 288 240 174 166 168 163 169 167 170 178 181 187 189 190 197 194 204 214 224 227 232 228 233 240 250 260 259 266 259 263
240 253 277 267 265 279 258 247 278 260 252 158 148 176 193 254 175 166 164 163 162 164 167 175 174 175 180 185 193 201 208 216 216 225 228 229 241 252 259 264 268 271 274 274
192 226 251 270 253 256 264 273 265 332 299 205 140 138 247 233 237 168 162 164 164 160 162 165 157 166 172 179 189 200 200 204 211 225 233 241 250 257 270 276 281 286 283 285
238 227 213 264 315 282 265 197 269 348 312 144 166 174 164 270 227 181 155 165 155 157 157 158 165 172 169 177 181 180 182 193 200 214 228 232 244 247 252 261 266 261 265 268
266 261 235 335 317 328 21 17 5 344 333 292 195 239 127 108 110 97 152 154 156 157 157 162 161 160 164 164 168 176 190 194 204 214 210 232 245 271 262 257 269 279 289 300
194 186 295 343 343 53 64 74 12 8 335 340 339 123 109 112 121 164 3 155 164 158 153 159 164 164 159 166 177 183 189 194 191 199 208 229 242 264 287 291 288 294 284 296
41 139 298 292 23 5 352 40 86 319 267 311 356 143 133 128 161 186 218 211 166 159 157 158 163 160 169 177 177 175 181 191 206 221 232 244 259 273 282 286 280 286 292 301
217 271 275 161 90 21 353 337 315 300 310 319 327 137 145 160 164 175 201 190 167 162 164 159 166 166 177 172 166 173 190 203 218 233 248 254 268 267 256 268 282 288 285 293
300 106 19 308 219 281 330 317 330 321 306 306 301 307 178 153 165 186 198 167 162 162 162 163 162 164 178 169 169 172 186 197 202 224 250 264 269 282 278 275 273 281 284 292
317 76 196 244 265 270 264 308 308 306 302 298 293 281 281 155 164 274 195 166 161 163 165 165 169 173 169 160 160 160 156 188 211 246 247 266 270 274 284 291 293 297 295 299
294 242 235 255 259 292 219 288 314 293 299 292 290 270 260 329 103 165 185 164 158 161 168 169 163 162 158 157 159 163 175 197 210 220 257 272 273 276 277 279 282 289 271 294
278 268 265 282 262 275 247 261 281 294 307 301 300 279 277 226 188 171 165 157 161 168 170 166 159 159 159 162 167 172 164 175 218 244 263 262 276 290 286 287 288 266 286 297
263 257 258 256 256 255 255 263 270 280 290 290 292 290 260 243 181 268 156 162 157 162 166 165 167 164 167 170 170 159 193 210 245 278 260 280 288 286 288 288 294 275 270 293
290 285 282 249 238 249 231 244 256 268 276 281 276 274 249 240 214 217 182 168 164 166 171 173 172 171 175 174 165 174 186 247 280 304 285 292 291 287 282 284 288 292 265 293
281 284 259 274 267 258 250 243 252 255 261 262 262 258 237 245 209 211 176 163 171 174 180 180 178 179 183 184 169 174 195 212 257 267 264 281 280 275 283 290 291 292 278 291
288 299 271 287 285 232 239 241 243 245 252 253 252 270 296 260 206 204 216 176 182 177 186 189 187 187 187 185 179 185 196 218 241 259 274 278 300 293 289 290 278 275 272 292
292 279 272 281 275 256 250 233 238 244 241 248 255 295 301 299 191 211 266 167 189 182 192 197 192 191 191 182 184 181 209 229 248 262 283 296 281 285 294 296 281 263 273 272
275 269 267 257 253 241 255 238 228 234 235 241 244 277 297 292 195 197 234 274 176 188 206 199 189 185 195 183 189 204 220 233 246 273 288 294 287 294 298 288 253 244 267 235
265 263 257 251 243 242 240 219 216 221 226 235 207 226 312 174 141 175 184 256 258 206 199 195 188 181 195 191 191 210 249 253 267 271 275 288 277 280 288 267 270 252 252 235
268 262 245 235 229 221 208 204 206 215 224 224 229 212 236 263 228 216 209 264 276 209 194 193 190 190 201 198 180 203 242 255 259 265 270 276 266 278 262 256 250 248 257 221
5 355 228 220 167 179 197 197 209 203 215 224 217 211 210 212 228 201 203 222 226 202 184 202 198 207 226 207 219 210 235 259 277 295 277 272 279 272 260 260 256 232 229 224
68 57 79 109 151 186 188 183 201 205 196 206 209 210 208 212 205 205 220 201 212 207 196 199 199 193 210 211 194 222 240 262 262 262 281 282 261 261 261 267 242 228 228 213
63 64 67 89 92 130 160 205 195 173 168 185 180 204 189 195 185 143 171 211 187 180 193 180 187 196 208 188 206 213 229 271 300 292 304 293 256 248 263 257 250 231 224 213
53 53 54 82 75 86 114 106 112 121 123 135 155 122 154 144 152 146 155 158 164 161 165 181 198 198 185 192 218 222 227 254 302 319 4 349 315 287 255 257 237 225 215 202
Wind_Speed_850mb
48 57 55 40 35 48 40 41 37 32 21 20 11 13 19 26 33 34 35 34 32 36 64 60 59 51 53 56 55 51 51 50 52 36 44 46 48 46 45 45 45 40 45 45
52 53 56 55 41 46 45 41 45 44 35 27 43 22 40 58 45 40 42 39 38 33 50 48 48 50 47 50 58 59 61 55 54 46 45 47 47 40 42 43 45 41 40 47
36 39 43 50 54 46 43 39 41 37 30 28 14 12 38 37 48 47 47 45 44 44 44 44 46 52 50 56 53 61 50 51 47 48 45 41 38 34 30 32 34 42 42 44
27 42 44 42 39 46 39 24 45 30 20 21 16 12 17 24 48 51 48 49 48 47 46 46 43 40 43 43 36 45 46 41 37 36 35 33 32 32 28 30 32 38 38 41
23 35 46 45 44 44 30 40 47 26 30 39 56 27 13 32 49 48 48 49 48 47 45 47 50 47 47 45 44 40 40 41 34 31 28 32 34 32 34 34 34 34 37 40
19 14 46 46 45 59 28 24 41 22 19 8 21 6 10 42 34 46 47 45 46 47 42 43 55 51 46 44 42 39 35 35 34 28 27 28 31 33 26 21 23 22 26 31
31 24 17 55 43 41 26 5 31 33 28 20 5 10 25 23 108 55 56 48 50 49 50 52 45 43 48 42 37 30 25 24 23 22 20 18 16 17 21 24 28 29 34 35
18 25 37 20 35 4 10 33 42 36 30 13 21 32 8 50 38 38 60 58 54 50 50 45 46 45 42 37 32 30 30 30 32 30 21 17 16 18 19 25 24 25 27 26
18 16 24 39 46 15 11 11 33 47 51 32 17 41 58 60 51 38 10 56 52 54 56 53 48 47 40 35 32 30 28 23 18 17 12 14 14 17 27 22 25 25 28 35
8 2 16 43 34 42 42 9 23 3 48 26 22 36 56 92 88 90 75 52 60 62 57 55 48 41 38 34 25 25 21 21 19 19 18 17 20 23 28 31 30 15 19 26
14 15 30 17 16 18 42 35 16 27 28 23 24 14 62 65 84 96 92 81 81 71 61 58 52 43 32 28 28 27 22 20 19 19 23 22 23 23 27 31 36 38 38 37
10 17 21 28 13 15 24 54 32 39 28 18 24 19 35 65 89 110 76 79 78 75 69 62 52 44 34 28 26 26 23 18 16 13 13 21 20 20 23 28 38 40 38 36
13 2 18 26 18 35 42 49 55 32 30 20 24 28 28 33 21 35 84 86 89 80 71 65 58 45 33 27 23 24 23 16 12 13 14 14 17 21 22 30 29 30 33 34
43 15 18 16 13 18 17 37 54 47 28 18 28 34 26 3 50 83 80 85 83 81 71 66 54 43 36 28 24 23 24 20 16 12 11 15 16 19 23 25 29 32 17 25
49 35 24 22 10 15 36 47 51 35 24 24 27 33 21 25 5 31 89 89 85 72 65 60 52 46 38 31 26 22 17 8 5 7 10 17 22 22 16 19 24 26 37 46
27 35 37 39 27 17 21 39 39 35 19 23 29 26 23 24 4 11 86 73 82 76 68 60 52 49 41 33 26 21 19 19 15 15 9 11 15 19 25 24 27 31 25 28
34 26 29 34 20 19 37 45 31 28 20 24 26 29 27 42 38 27 29 62 64 64 69 66 57 50 42 32 28 20 13 17 14 19 8 14 19 25 23 25 26 30 23 30
31 38 38 33 25 24 32 31 30 30 27 23 31 34 27 24 25 34 25 52 59 63 67 65 56 50 43 36 30 24 18 11 11 11 17 17 25 28 20 23 24 26 23 30
26 28 35 28 28 30 35 36 34 29 25 28 32 24 14 14 35 23 28 64 65 70 67 62 55 48 44 37 31 29 18 13 13 13 16 21 25 16 19 27 24 26 21 29
29 28 21 24 29 29 34 32 35 34 30 29 23 11 17 9 13 79 57 69 72 62 62 62 54 47 44 36 26 21 16 16 15 16 23 20 19 19 26 25 30 16 15 19
30 31 30 29 33 34 41 30 40 38 29 25 13 15 25 11 14 23 66 69 23 33 45 48 49 38 35 31 25 15 14 13 14 15 20 20 21 22 19 22 15 13 21 16
31 32 30 30 32 37 24 30 33 28 25 21 11 12 8 12 31 39 70 65 52 47 51 45 44 40 31 22 16 11 16 15 12 17 25 21 21 21 21 15 14 17 17 24
29 29 30 34 36 25 21 28 26 23 23 20 15 18 17 3 9 14 53 73 17 47 57 46 51 47 42 28 18 15 17 15 15 18 17 18 26 26 21 19 18 22 18 28
4 4 17 15 26 21 26 27 25 24 22 20 19 16 15 22 27 24 31 37 40 46 40 43 49 46 36 35 26 15 15 15 15 16 14 24 28 21 22 25 20 22 22 27
14 21 23 18 14 21 23 21 18 24 22 17 19 19 20 24 27 32 38 44 47 41 48 38 41 44 37 26 14 14 14 17 17 24 25 28 18 23 30 27 22 26 23 32
24 24 21 14 9 8 11 11 2 21 22 24 16 16 15 12 14 17 25 29 31 40 33 30 36 28 24 17 17 14 11 12 17 27 28 17 14 25 20 17 18 21 30 36
34 30 23 21 24 14 17 11 20 26 28 16 17 11 13 13 22 19 15 22 36 24 20 26 26 24 22 18 15 13 6 15 19 19 18 15 9 9 14 18 15 18 29 35
Wind_Direction_850mb
274 280 287 283 222 263 234 258 262 259 232 171 342 305 140 143 150 162 160 164 173 179 166 173 177 193 203 196 209 215 204 210 219 244 230 231 229 232 237 240 246 251 253 253
255 263 273 279 262 264 265 228 244 255 258 146 192 195 138 201 162 171 157 166 168 181 159 164 170 175 177 191 201 205 209 215 225 231 233 234 241 240 245 248 254 254 255 252
288 287 277 262 259 258 244 262 231 246 255 109 109 132 170 170 171 169 164 166 168 175 168 176 180 191 199 207 211 208 204 216 232 224 238 247 240 242 248 261 249 250 252 256
274 295 263 267 275 279 270 294 260 235 242 137 121 291 288 240 174 166 168 163 169 167 170 178 181 187 189 190 197 194 204 214 224 227 232 228 233 240 250 260 259 266 259 263
240 253 277 267 265 279 258 247 278 260 252 158 148 176 193 254 175 166 164 163 162 164 167 175 174 175 180 185 193 201 208 216 216 225 228 229 241 252 259 264 268 271 274 274
192 226 251 270 253 256 264 273 265 332 299 205 140 138 247 233 237 168 162 164 164 160 162 165 157 166 172 179 189 200 200 204 211 225 233 241 250 257 270 276 281 286 283 285
238 227 213 264 315 282 265 197 269 348 312 144 166 174 164 270 227 181 155 165 155 157 157 158 165 172 169 177 181 180 182 193 200 214 228 232 244 247 252 261 266 261 265 268
266 261 235 335 317 328 21 17 5 344 333 292 195 239 127 108 110 97 152 154 156 157 157 162 161 160 164 164 168 176 190 194 204 214 210 232 245 271 262 257 269 279 289 300
194 186 295 343 343 53 64 74 12 8 335 340 339 123 109 112 121 164 3 155 164 158 153 159 164 164 159 166 177 183 189 194 191 199 208 229 242 264 287 291 288 294 284 296
41 139 298 292 23 5 352 40 86 319 267 311 356 143 133 128 161 186 218 211 166 159 157 158 163 160 169 177 177 175 181 191 206 221 232 244 259 273 282 286 280 286 292 301
217 271 275 161 90 21 353 337 315 300 310 319 327 137 145 160 164 175 201 190 167 162 164 159 166 166 177 172 166 173 190 203 218 233 248 254 268 267 256 268 282 288 285 293
300 106 19 308 219 281 330 317 330 321 306 306 301 307 178 153 165 186 198 167 162 162 162 163 162 164 178 169 169 172 186 197 202 224 250 264 269 282 278 275 273 281 284 292
317 76 196 244 265 270 264 308 308 306 302 298 293 281 281 155 164 274 195 166 161 163 165 165 169 173 169 160 160 160 156 188 211 246 247 266 270 274 284 291 293 297 295 299
294 242 235 255 259 292 219 288 314 293 299 292 290 270 260 329 103 165 185 164 158 161 168 169 163 162 158 157 159 163 175 197 210 220 257 272 273 276 277 279 282 289 271 294
278 268 265 282 262 275 247 261 281 294 307 301 300 279 277 226 188 171 165 157 161 168 170 166 159 159 159 162 167 172 164 175 218 244 263 262 276 290 286 287 288 266 286 297
263 257 258 256 256 255 255 263 270 280 290 290 292 290 260 243 181 268 156 162 157 162 166 165 167 164 167 170 170 159 193 210 245 278 260 280 288 286 288 288 294 275 270 293
290 285 282 249 238 249 231 244 256 268 276 281 276 274 249 240 214 217 182 168 164 166 171 173 172 171 175 174 165 174 186 247 280 304 285 292 291 287 282 284 288 292 265 293
281 284 259 274 267 258 250 243 252 255 261 262 262 258 237 245 209 211 176 163 171 174 180 180 178 179 183 184 169 174 195 212 257 267 264 281 280 275 283 290 291 292 278 291
288 299 271 287 285 232 239 241 243 245 252 253 252 270 296 260 206 204 216 176 182 177 186 189 187 187 187 185 179 185 196 218 241 259 274 278 300 293 289 290 278 275 272 292
292 279 272 281 275 256 250 233 238 244 241 248 255 295 301 299 191 211 266 167 189 182 192 197 192 191 191 182 184 181 209 229 248 262 283 296 281 285 294 296 281 263 273 272
275 269 267 257 253 241 255 238 228 234 235 241 244 277 297 292 195 197 234 274 176 188 206 199 189 185 195 183 189 204 220 233 246 273 288 294 287 294 298 288 253 244 267 235
265 263 257 251 243 242 240 219 216 221 226 235 207 226 312 174 141 175 184 256 258 206 199 195 188 181 195 191 191 210 249 253 267 271 275 288 277 280 288 267 270 252 252 235
268 262 245 235 229 221 208 204 206 215 224 224 229 212 236 263 228 216 209 264 276 209 194 193 190 190 201 198 180 203 242 255 259 265 270 276 266 278 262 256 250 248 257 221
5 355 228 220 167 179 197 197 209 203 215 224 217 211 210 212 228 201 203 222 226 202 184 202 198 207 226 207 219 210 235 259 277 295 277 272 279 272 260 260 256 232 229 224
68 57 79 109 151 186 188 183 201 205 196 206 209 210 208 212 205 205 220 201 212 207 196 199 199 193 210 211 194 222 240 262 262 262 281 282 261 261 261 267 242 228 228 213
63 64 67 89 92 130 160 205 195 173 168 185 180 204 189 195 185 143 171 211 187 180 193 180 187 196 208 188 206 213 229 271 300 292 304 293 256 248 263 257 250 231 224 213
53 53 54 82 75 86 114 106 112 121 123 135 155 122 154 144 152 146 155 158 164 161 165 181 198 198 185 192 218 222 227 254 302 319 4 349 315 287 255 257 237 225 215 202